Powrót do katalogu

COSMOS 2251 DEB

AktywnyVLEO
NORAD 37496·DEBRIS·🇷🇺 Russia

Wystrzelony Jun 16, 1993 z Plesetsk Cosmodrome

Loading…

Następne Przeloty (najbliższe 24 godziny)

TLE

NieaktualneSource: Space-Track

Epoka: Aug 30, 2026, 10:51 UTC

1 37496U 93036BLZ 26242.45245281  .00025138  00000-0  17016-2 0  9993
2 37496  73.9454 149.1158 0050312 102.8068 257.8750 15.05366138699262

Śledź COSMOS 2251 DEB w czasie rzeczywistym z AllMySat

Download on the App Store